www.pogodaiklimat.ru

Погода и климат >> Архив погоды >> Россия >> Ставропольский край >> Рощино


ПОГОДА в Рощино

  • Прогноз погоды в Рощино
  • Монитор погоды в Рощино

АРХИВ ПОГОДЫ в Рощино

Время (UTC), дата Ветер
(напр.,м/с)
 
Видим.   Явления Облачность Т
(С)
Тd
(С)
f
(%)
Тe
(С)
Тes
(С)
Комфортность P
(гПа)
Po
(гПа)
Тmin
(С)
Tmax
(С)
R
(мм)
R24
(мм)
S
(см)
18 17.06 Ю 2 10 км {гроза, ливн. осадки} 10/10 600 м
[Cb cap]
+21.3 +16.0 72 +25 +25 комфорт 1010.4 999.5
21 17.06 ЮЗ 1 10 км 8/0
[Ac trans Ci fib]
+19.6 +16.4 82 +23 +23 комфорт 1010.2 999.2
00 18.06 штиль 0 10 км 4/0
[Ac trans Ci fib]
+17.1 +16.0 93 +17 +17 1010.3 999.2
03 18.06 Ю 1 10 км 1/0
[Ac trans]
+20.9 +16.6 76 +26 +27 душно 1011.1 1000.2 +17.1
06 18.06 ЮЗ 1 10 км ясно +28.5 +14.5 42 +31 +45 душно 1010.7 1000.1
09 18.06 СЗ 1 10 км 1/0
[Ac trans]
+32.7 +9.3 24 +32 +53 опасность
солнечного
удара
1009.9 999.4
12 18.06 Ю 2 10 км 3/3 1000 м
[Cu med, cong Ac trans]
+35.1 +7.8 19 +33 +42 жарко 1008.3 997.9
15 18.06 В 2 10 км 4/3 1000 м
[Cu hum Ac trans]
+33.7 +7.0 19 +32 +33 жарко 1008.0 996.5 +35.6
18 18.06 ЮВ 1 10 км 3/0
[Ac trans]
+27.8 +9.4 32 +28 +28 жарко 1009.4 998.7
21 18.06 штиль 0 10 км ясно +23.0 +10.4 45 +25 +25 комфорт 1009.5 998.7
00 19.06 штиль 0 10 км ясно +19.3 +11.7 61 +20 +20 1009.4 998.4
03 19.06 З 1 10 км ясно +21.8 +13.9 61 +25 +27 комфорт 1009.4 998.5 +18.0
06 19.06 В 2 10 км ясно +32.9 +7.8 21 +31 +44 жарко 1009.0 998.5
09 19.06 ЮВ 2 10 км 1/0
[Ac cast]
+35.8 +5.7 16 +33 +51 опасность
солнечного
удара
1008.3 997.9
12 19.06 В 3 10 км 4/1 1000 м
[Cu med, cong]
+36.9 +4.9 14 +34 +42 очень
жарко
1007.5 997.1
15 19.06 ЮВ 3 10 км 3/0
[Ac trans]
+34.4 +5.9 17 +32 +33 жарко 1007.3 996.9 +37.5
18 19.06 штиль 0 10 км ясно +27.8 +6.9 27 +27 +27 жарко 1008.8 998.1
21 19.06 штиль 0 10 км 1/0
[Ci fib]
+22.3 +8.8 42 +24 +24 комфорт 1008.4 997.5
00 20.06 штиль 0 10 км 3/0
[Ci fib]
+18.9 +10.1 57 +20 +20 1008.0 997.1
03 20.06 В 2 10 км 1/0
[Ci fib]
+21.4 +9.3 46 +23 +24 комфорт 1009.1 998.2 +17.8
06 20.06 В 2 10 км 8/0
[Ac cast Ci]
+32.3 +7.8 22 +31 +39 жарко 1008.8 998.3
09 20.06 В 2 10 км 8/3 600 м
[Sc Ac As Ci]
+35.7 +4.8 15 +33 +42 жарко 1007.9 997.5
12 20.06 В 4 10 км 9/4 600 м
[Sc Ac As Ci]
+34.6 +5.6 17 +32 +35 жарко 1006.9 996.5
15 20.06 В 4 10 км 9/3 600 м
[Sc Ac As Ci]
+33.6 +6.5 19 +32 +32 жарко 1007.3 996.9 +36.5
18 20.06 штиль 0 10 км 8/3 1000 м
[Sc Ac cast Ci fib]
+27.2 +13.4 43 +29 +29 жарко 1008.9 998.2
21 20.06 В 1 10 км 9/9 600 м
[Sc Ac As]
+24.8 +13.6 50 +27 +27 жарко 1009.1 998.3
00 21.06 В 1 10 км 9/9 600 м
[Sc]
+23.5 +14.2 56 +26 +26 жарко 1010.7 999.9
03 21.06 В 1 10 км 9/8 600 м
[Sc Ac und]
+23.2 +17.4 70 +29 +29 душно 1011.1 1000.3 +22.1
06 21.06 В 3 10 км 9/6 600 м
[Sc Ac trans]
+28.8 +15.5 44 +32 +34 душно 1011.5 1000.9
09 21.06 Ю 1 10 км гроза без осадков 10/8 600 м
[Cb cap Ac As]
+30.3 +18.7 50 +35 +37 очень
душно
1011.4 1000.9
12 21.06 В 3 10 км гроза без осадков 9/8 600 м
[Cb cap Ac As]
+32.2 +7.9 22 +31 +32 жарко 1010.9 1000.4
15 21.06 ЮВ 1
{10}
10 км в посл. час гроза 10/9 600 м
[Cb cap Ac As]
+29.7 +13.3 37 +31 +31 жарко 1011.5 1000.9 +33.7
18 21.06 штиль 0 10 км {гроза} 9/6 600 м
[Sc Ac As]
+24.7 +15.4 56
21 21.06 В 1 10 км 8/5 600 м
[Sc Ac trans]
+24.1 +14.8 56 +27 +27 жарко 1012.7 1001.9
00 22.06 штиль 0 10 км 8/4 600 м
[Sc Ac trans]
+19.0 +14.4 75 +20 +20 1012.5 1001.5
03 22.06 В 1 10 км 6/3 600 м
[Sc Ac trans Ci fib]
+22.4 +13.8 58 +26 +27 жарко 1013.2 1002.4 +18.3
06 22.06 В 2 10 км 9/0
[Ac As Ci fib]
+29.6 +9.9 29 +29 +35 жарко 1013.2 1002.5
09 22.06 ЮВ 2 10 км 8/0
[Ac lent Ci]
+35.1 +5.9 16 +33 +45 жарко 1011.8 1001.4
12 22.06 В 3
{10}
10 км 8/0
[Ac lent Ci]
+36.9 +7.3 16 +35 +41 очень
жарко
1010.3 1000.0
15 22.06 В 4
{10}
10 км 8/0
[Ac lent Ci sp]
+34.4 +7.7 19 +33 +33 жарко 1010.8 1000.3 +37.2
18 22.06 В 2 10 км 3/0
[Ci fib]
+28.5 +9.8 31 +29 +29 жарко 1012.4 1001.8
21 22.06 В 1 10 км ясно +23.6 +16.3 64 +27 +27 жарко 1012.0 1001.2
00 23.06 штиль 0 10 км 1/0
[Ci fib]
+20.6 +17.5 82 +24 +24 комфорт 1011.8 1000.9
03 23.06 штиль 0 10 км 3/0
[Ac trans Ci fib]
+23.1 +18.5 75 +29 +31 очень
душно
1012.6 1001.8 +19.7
06 23.06 В 2 10 км 1/0
[Ac trans]
+30.5 +19.3 51 +36 +48 очень
душно
1012.2 1001.7
09 23.06 В 3 10 км 3/0
[Ac trans]
+36.4 +11.9 23 +36 +49 очень
жарко
1010.5 1000.2
12 23.06 В 3
{11}
10 км 6/0
[Ac trans Ci fib]
+36.8 +9.3 19 +35 +43 очень
жарко
1009.5 999.2
15 23.06 В 4 10 км 9/0
[Ac As Ci fib]
+34.5 +9.7 22 +33 +34 жарко 1009.8 999.3 +38.1
18 23.06 В 2 10 км 8/0
[Ac As Ci fib]
+30.0 +10.4 30 +30 +30 жарко 1011.3 1000.7
21 23.06 В 2 10 км ясно +25.5 +13.4 47 +28 +28 жарко 1011.5 1000.7
00 24.06 В 1 10 км 3/0
[Ac trans]
+22.7 +16.2 67 +27 +27 душно 1011.2 1000.4
03 24.06 штиль 0 10 км 4/0
[Ac As Ci fib]
+22.6 +17.3 72 +27 +29 душно 1011.9 1001.1 +20.8
06 24.06 С 1 10 км 6/0
[Ci sp]
+31.4 +15.4 38 +34 +46 душно 1011.6 1001.1
09 24.06 СЗ 1 10 км 8/0
[Ac trans Ci fib]
+36.0 +12.5 24 +36 +51 опасность
солнечного
удара
1010.2 999.8
12 24.06 З 2 10 км 9/0
[Ac trans Ci fib]
+38.7 +9.8 18 +37 +44 очень
жарко
1008.7 998.4
15 24.06 З 3 10 км 8/1 600 м
[Sc Ac cast Ci fib]
+35.8 +10.2 21 +39.1

 

Местоположение метеостанции Рощино (Ставропольский край, Россия): широта 44.15 долгота 45.20 высота над уровнем моря 94 м.

В архиве по умолчанию представлена погода в Рощино за последнюю неделю. Архивные данные за месяц целиком и за предыдущие месяцы, начиная с января 2011 года, Вы можете получить, выбрав интересующий диапазон дат из раскрывающегося списка и нажав кнопку "Ввод!".


*Определитесь, кто Вы:
робот инопланетянин человек

Внимание! Время в таблицах - всемирное. Для получения местного времени необходимо прибавить поправку, которая равна 3 ч.

Смотрите также архив погоды в соседних городах и на ближайших метеорологических станциях:

Погода в Терекли-Мектебе (Дагестан, Россия) (54 км)
Погода в Наурской (Чечня, Россия) (56 км)
Погода в Моздоке (Северная Осетия, Россия) (63 км)
Погода в Южно-Сухокумске (Дагестан, Россия) (66 км)
Погода в Прохладный (Кабардино-Балкария, Россия) (102 км)
Погода в Грозном (Чечня, Россия) (108 км)
Погода в Зеленокумске (Ставропольский край, Россия) (110 км)
Погода в Буденновске (Ставропольский край, Россия) (110 км)
Погода в Кочубее (Дагестан, Россия) (111 км)
Погода в Назрани (Ингушетия, Россия) (115 км)

Пояснения к столбцам:

Ветер - указаны скорость ветра в м/с - средняя за 10 мин, порывы в срок и между сроками (в фигурных скобках) и направление, откуда дует ветер: С - северный, СВ - северо-восточный, В - восточный, ЮВ - юго-восточный, Ю - южный, ЮЗ - юго-западный, З - западный, СЗ - северо-западный.
Видимость - горизонтальная дальность видимости в метрах или километрах. При видимости от 1 до 10 км при отсутствии осадков обычно наблюдается дымка, при ухудшении видимости до 1 км и менее - туман. В сухую погоду видимость может ухудшаться дымом, пылью или мглою.
Явления - указаны атмосферные явления, наблюдавшиеся в срок или в последний час перед сроком; фигурными скобками обозначены явления, наблюдавшиеся между сроками (за 1-3 часа до срока); квадратными скобками обозначены град или гололедные отложения с указанием их диаметра в мм.
Облачность - указаны через наклонную черту общая и нижняя облачность в баллах и высота нижней границы облаков в метрах; квадратными скобками обозначены формы облаков: Ci - перистые, Cs - перисто-слоистые, Cc - перисто-кучевые, Ac - высококучевые, As - высокослоистые, Sc - слоисто-кучевые, Ns - слоисто-дождевые, Cu - кучевые, Cb - кучево-дождевые. Подробнее классификацию облаков см. в Атласе облаков (PDF).
T - Температура воздуха - температура, измеренная на высоте 2 м над землей.
Td - Температура точки росы - температура, при понижении до которой содержащийся в воздухе водяной пар достигнет насыщения.
f - Относительная влажность воздуха - влажноcть воздуха, измеренная на высоте 2 м над землей.
Te - Эффективная температура - температура, которую ощущает одетый по сезону человек в тени. Характеристика душности погоды. При расчете учитывается влияние влажности воздуха и скорости ветра на теплоощущения человека.
Tes - Эффективная температура на солнце - температура, которую ощущает человек, с поправкой на солнечный нагрев. Характеристика знойности погоды. Зависит от высоты солнца над горизонтом, облачности и скорости ветра. Ночью, в пасмурную погоду, а также при ветре 12 м/с и более поправка равна нулю.
P - Атмосферное давление - приведенное к уровню моря атмосферное давление.
Po - Атмосферное давление - измеренное на уровне метеостанции атмосферное давление.
Tmin - Минимальная температура - минимум температуры воздуха на высоте 2 м над землей.
Tmax - Максимальная температура - максимум температуры воздуха на высоте 2 м над землей.
R - Количество осадков - Количество выпавших осадков за период времени, мм. При наведении курсора мыши на число - период времени, за который выпало указанное количество осадков.
R24 - Количество осадков - Количество выпавших осадков за 24 часа, мм.
S - Снежный покров - Высота снежного покрова, см. При наведении курсора мыши на число - состояние снежного покрова и степень покрытия местности в баллах.